GFSGBSN_prec_pwat_156.txt.gz
Precipitable_Water
1.35 1.35 1.37 1.37 1.38 1.40 1.42 1.45 1.49 1.48 1.45 1.33 1.23 1.12 1.07 1.04 0.98 0.92 0.91 0.94 0.98 1.02 1.05 1.05 1.05 1.03 0.87 0.62 0.51 0.73 0.77 0.74 0.71 0.68 0.59 0.50 0.43 0.39 0.30 0.30 0.33 0.29 0.27 0.30 0.33 0.34 0.36
1.24 1.26 1.29 1.30 1.32 1.34 1.35 1.37 1.40 1.44 1.44 1.45 1.44 1.40 1.33 1.17 1.13 1.08 1.03 1.01 1.01 1.01 1.02 1.02 1.02 1.01 0.78 0.46 0.74 0.78 0.80 0.76 0.71 0.67 0.61 0.60 0.49 0.42 0.33 0.31 0.32 0.32 0.30 0.32 0.31 0.32 0.37
1.10 1.12 1.17 1.21 1.25 1.29 1.29 1.28 1.32 1.35 1.38 1.39 1.40 1.43 1.41 1.41 1.38 1.37 1.30 1.20 1.12 1.08 1.07 1.06 1.07 1.00 0.73 0.57 0.78 0.78 0.76 0.71 0.70 0.66 0.57 0.59 0.65 0.49 0.39 0.32 0.36 0.35 0.30 0.30 0.31 0.32 0.33
0.97 0.97 0.97 1.01 1.09 1.17 1.22 1.23 1.24 1.26 1.29 1.31 1.35 1.36 1.38 1.38 1.39 1.38 1.39 1.36 1.33 1.29 1.25 1.19 1.14 0.98 0.63 0.86 0.88 0.76 0.79 0.74 0.85 0.87 0.76 0.70 0.77 0.62 0.45 0.43 0.39 0.33 0.31 0.25 0.30 0.33 0.34
0.74 0.80 0.83 0.85 0.88 0.97 1.06 1.12 1.16 1.21 1.23 1.24 1.24 1.27 1.31 1.33 1.34 1.33 1.32 1.30 1.29 1.27 1.30 1.32 1.16 0.97 0.65 1.00 0.85 0.96 0.97 0.79 0.86 0.88 0.84 0.80 0.74 0.56 0.51 0.40 0.32 0.35 0.28 0.27 0.30 0.36 0.34
0.69 0.69 0.71 0.74 0.75 0.78 0.82 0.86 0.95 1.06 1.18 1.19 1.18 1.20 1.23 1.26 1.28 1.27 1.26 1.25 1.26 1.25 1.26 1.27 1.19 0.92 0.95 0.79 0.93 0.98 1.04 0.97 0.85 0.83 0.74 0.70 0.63 0.47 0.40 0.37 0.24 0.27 0.27 0.31 0.31 0.34 0.32
0.62 0.65 0.68 0.68 0.70 0.73 0.74 0.76 0.79 0.85 0.91 0.96 1.07 1.11 1.16 1.19 1.20 1.23 1.19 1.09 0.95 0.91 1.02 0.88 0.90 0.86 0.91 1.04 1.09 0.99 1.05 0.93 0.89 0.79 0.62 0.68 0.55 0.41 0.38 0.41 0.38 0.36 0.32 0.28 0.30 0.35 0.32
0.68 0.68 0.66 0.65 0.67 0.69 0.70 0.72 0.73 0.75 0.77 0.77 0.81 0.85 0.96 1.10 1.16 1.17 1.13 0.90 0.91 0.95 0.72 0.89 0.87 0.88 0.96 1.06 0.82 0.89 1.06 0.81 0.72 0.61 0.70 0.61 0.49 0.58 0.58 0.52 0.48 0.43 0.36 0.34 0.37 0.39 0.32
0.72 0.71 0.68 0.65 0.62 0.62 0.63 0.67 0.70 0.70 0.72 0.73 0.72 0.73 0.75 0.80 0.95 1.02 0.96 0.92 1.11 1.04 0.69 0.68 0.78 0.73 0.76 0.85 0.73 0.75 0.94 0.86 0.71 0.61 0.63 0.55 0.57 0.65 0.60 0.53 0.47 0.46 0.42 0.39 0.37 0.39 0.33
0.69 0.70 0.70 0.69 0.67 0.65 0.65 0.63 0.62 0.65 0.68 0.69 0.72 0.71 0.71 0.73 0.59 0.69 0.70 0.87 1.07 1.02 0.53 0.50 0.60 0.65 0.72 0.75 0.62 0.81 0.90 0.84 0.73 0.60 0.62 0.58 0.65 0.61 0.57 0.51 0.52 0.42 0.52 0.47 0.41 0.35 0.26
0.73 0.70 0.69 0.69 0.66 0.65 0.65 0.63 0.60 0.61 0.62 0.63 0.66 0.67 0.67 0.71 0.64 0.61 0.70 0.85 0.91 0.77 0.29 0.50 0.56 0.79 0.75 0.63 0.66 0.72 0.89 0.79 0.59 0.63 0.63 0.50 0.56 0.57 0.54 0.52 0.57 0.47 0.56 0.53 0.46 0.37 0.34
0.74 0.73 0.72 0.71 0.69 0.68 0.67 0.65 0.62 0.60 0.61 0.64 0.66 0.66 0.66 0.64 0.67 0.69 0.79 0.77 0.69 0.32 0.17 0.35 0.54 0.56 0.58 0.64 0.65 0.75 0.76 0.85 0.81 0.68 0.66 0.60 0.70 0.66 0.60 0.63 0.65 0.64 0.59 0.49 0.45 0.38 0.27
0.72 0.76 0.74 0.72 0.71 0.70 0.69 0.69 0.66 0.64 0.63 0.64 0.65 0.68 0.66 0.68 0.58 0.80 0.77 0.62 0.27 0.18 0.26 0.21 0.29 0.50 0.53 0.54 0.57 0.60 0.60 0.57 0.54 0.48 0.47 0.60 0.58 0.66 0.66 0.57 0.64 0.62 0.54 0.37 0.32 0.30 0.25
0.67 0.70 0.75 0.74 0.73 0.71 0.69 0.69 0.68 0.66 0.65 0.65 0.66 0.66 0.68 0.68 0.78 0.81 0.68 0.41 0.18 0.19 0.20 0.30 0.32 0.40 0.41 0.51 0.52 0.56 0.55 0.51 0.62 0.58 0.49 0.45 0.41 0.57 0.64 0.59 0.55 0.55 0.49 0.37 0.29 0.28 0.29
0.60 0.65 0.69 0.71 0.72 0.72 0.70 0.67 0.65 0.64 0.61 0.63 0.66 0.64 0.63 0.66 0.76 0.76 0.47 0.26 0.22 0.20 0.29 0.28 0.28 0.25 0.32 0.40 0.50 0.51 0.51 0.50 0.54 0.59 0.45 0.44 0.43 0.60 0.62 0.66 0.64 0.54 0.45 0.54 0.42 0.44 0.35
0.56 0.59 0.64 0.67 0.68 0.67 0.66 0.61 0.59 0.59 0.60 0.60 0.52 0.54 0.54 0.69 0.76 0.65 0.41 0.27 0.25 0.28 0.34 0.37 0.26 0.28 0.23 0.27 0.33 0.42 0.44 0.51 0.51 0.58 0.63 0.55 0.43 0.58 0.61 0.65 0.65 0.60 0.60 0.44 0.46 0.31 0.27
0.50 0.52 0.55 0.59 0.61 0.60 0.58 0.57 0.52 0.51 0.51 0.53 0.46 0.37 0.51 0.66 0.69 0.49 0.30 0.34 0.29 0.37 0.41 0.37 0.33 0.30 0.27 0.25 0.32 0.31 0.36 0.46 0.51 0.50 0.60 0.57 0.54 0.49 0.62 0.55 0.50 0.59 0.54 0.54 0.52 0.45 0.32
0.43 0.46 0.51 0.53 0.58 0.61 0.59 0.56 0.51 0.48 0.48 0.49 0.40 0.25 0.50 0.62 0.38 0.40 0.33 0.34 0.37 0.35 0.42 0.38 0.43 0.41 0.33 0.32 0.30 0.31 0.32 0.42 0.47 0.52 0.45 0.55 0.54 0.43 0.49 0.59 0.60 0.62 0.58 0.55 0.42 0.38 0.43
0.40 0.39 0.41 0.48 0.51 0.53 0.59 0.58 0.56 0.54 0.50 0.41 0.31 0.31 0.49 0.52 0.26 0.31 0.34 0.37 0.39 0.33 0.36 0.40 0.38 0.42 0.46 0.38 0.32 0.34 0.34 0.41 0.44 0.47 0.46 0.57 0.47 0.37 0.40 0.51 0.56 0.50 0.52 0.55 0.54 0.50 0.40
0.44 0.41 0.42 0.38 0.46 0.51 0.55 0.58 0.57 0.55 0.55 0.43 0.31 0.21 0.28 0.36 0.41 0.31 0.31 0.31 0.33 0.39 0.36 0.36 0.38 0.42 0.41 0.39 0.45 0.35 0.31 0.39 0.44 0.45 0.52 0.57 0.47 0.38 0.31 0.37 0.45 0.43 0.50 0.53 0.51 0.39 0.39
0.44 0.44 0.42 0.40 0.38 0.45 0.51 0.55 0.54 0.54 0.54 0.45 0.33 0.24 0.27 0.20 0.19 0.29 0.35 0.33 0.29 0.30 0.36 0.38 0.32 0.32 0.34 0.30 0.37 0.37 0.33 0.40 0.42 0.43 0.48 0.51 0.36 0.43 0.45 0.46 0.45 0.44 0.43 0.42 0.42 0.43 0.37
0.47 0.46 0.44 0.45 0.40 0.39 0.42 0.49 0.50 0.51 0.52 0.40 0.26 0.23 0.27 0.23 0.27 0.24 0.25 0.28 0.28 0.30 0.34 0.32 0.32 0.30 0.30 0.27 0.31 0.31 0.39 0.41 0.35 0.37 0.43 0.48 0.35 0.42 0.37 0.42 0.43 0.40 0.40 0.42 0.41 0.40 0.41
0.51 0.51 0.50 0.49 0.45 0.41 0.40 0.43 0.44 0.47 0.47 0.34 0.32 0.32 0.25 0.20 0.19 0.19 0.19 0.24 0.29 0.35 0.35 0.35 0.33 0.34 0.32 0.29 0.34 0.34 0.41 0.45 0.47 0.42 0.41 0.41 0.38 0.35 0.28 0.38 0.39 0.31 0.31 0.34 0.36 0.41 0.39
0.57 0.55 0.53 0.52 0.48 0.45 0.43 0.44 0.45 0.46 0.45 0.35 0.33 0.30 0.22 0.14 0.16 0.15 0.17 0.20 0.24 0.29 0.30 0.36 0.40 0.36 0.34 0.45 0.45 0.41 0.38 0.40 0.44 0.42 0.50 0.39 0.38 0.37 0.29 0.32 0.22 0.29 0.37 0.36 0.32 0.34 0.39
0.59 0.59 0.57 0.55 0.53 0.50 0.47 0.47 0.46 0.45 0.48 0.40 0.38 0.30 0.23 0.15 0.16 0.14 0.14 0.15 0.17 0.21 0.23 0.29 0.34 0.39 0.47 0.44 0.34 0.29 0.27 0.28 0.27 0.35 0.39 0.44 0.38 0.30 0.26 0.25 0.28 0.26 0.28 0.29 0.28 0.25 0.31
0.58 0.59 0.59 0.58 0.56 0.55 0.53 0.53 0.53 0.51 0.48 0.47 0.41 0.40 0.31 0.22 0.18 0.21 0.17 0.16 0.14 0.15 0.19 0.22 0.37 0.46 0.47 0.40 0.32 0.22 0.19 0.21 0.20 0.24 0.35 0.38 0.40 0.33 0.28 0.22 0.19 0.22 0.27 0.33 0.36 0.20 0.29
0.56 0.58 0.59 0.59 0.58 0.57 0.58 0.58 0.58 0.56 0.53 0.50 0.44 0.45 0.36 0.26 0.27 0.26 0.19 0.16 0.19 0.22 0.22 0.24 0.30 0.37 0.44 0.33 0.27 0.24 0.22 0.27 0.20 0.19 0.23 0.28 0.32 0.28 0.26 0.22 0.24 0.30 0.33 0.37 0.22 0.16 0.26
0.57 0.57 0.58 0.59 0.59 0.58 0.58 0.58 0.59 0.58 0.57 0.54 0.45 0.48 0.37 0.29 0.28 0.29 0.26 0.22 0.22 0.21 0.18 0.29 0.29 0.37 0.37 0.30 0.28 0.27 0.27 0.28 0.25 0.24 0.23 0.22 0.24 0.24 0.26 0.22 0.18 0.35 0.35 0.25 0.27 0.30 0.30
0.59 0.59 0.57 0.59 0.58 0.59 0.59 0.59 0.59 0.59 0.58 0.58 0.43 0.49 0.48 0.35 0.30 0.35 0.31 0.30 0.28 0.26 0.25 0.31 0.29 0.34 0.34 0.35 0.34 0.31 0.26 0.29 0.30 0.24 0.37 0.25 0.32 0.29 0.30 0.25 0.35 0.38 0.34 0.37 0.37 0.33 0.33

GFSGBSN_prec_pwat_159.txt.gz
Precipitable_Water
1.37 1.38 1.37 1.37 1.37 1.38 1.39 1.39 1.41 1.43 1.46 1.47 1.46 1.42 1.34 1.22 1.14 1.08 1.03 0.98 0.97 0.98 1.00 1.00 1.00 0.98 0.84 0.60 0.49 0.71 0.75 0.78 0.75 0.68 0.58 0.54 0.44 0.37 0.30 0.30 0.31 0.30 0.30 0.29 0.30 0.31 0.32
1.25 1.26 1.27 1.29 1.32 1.32 1.32 1.33 1.35 1.36 1.37 1.40 1.42 1.43 1.44 1.43 1.39 1.32 1.22 1.11 1.07 1.06 1.02 1.03 1.02 1.00 0.78 0.47 0.71 0.76 0.77 0.72 0.68 0.64 0.57 0.56 0.52 0.48 0.40 0.33 0.30 0.32 0.31 0.29 0.31 0.31 0.34
1.08 1.09 1.12 1.14 1.19 1.24 1.27 1.26 1.27 1.28 1.30 1.32 1.34 1.35 1.38 1.39 1.42 1.42 1.39 1.39 1.35 1.33 1.25 1.21 1.16 1.03 0.75 0.59 0.79 0.77 0.75 0.68 0.68 0.64 0.52 0.57 0.61 0.56 0.46 0.37 0.38 0.33 0.28 0.30 0.30 0.30 0.32
0.93 0.96 0.97 0.98 1.02 1.07 1.12 1.14 1.18 1.20 1.22 1.24 1.26 1.28 1.30 1.34 1.34 1.36 1.37 1.35 1.34 1.33 1.33 1.33 1.32 1.17 0.78 1.08 1.10 0.93 0.87 0.75 0.78 0.74 0.70 0.74 0.73 0.61 0.56 0.50 0.41 0.33 0.32 0.24 0.31 0.32 0.34
0.75 0.79 0.82 0.82 0.84 0.86 0.91 0.96 0.98 1.05 1.12 1.18 1.19 1.21 1.22 1.26 1.28 1.27 1.28 1.26 1.26 1.27 1.27 1.28 1.17 1.05 0.75 1.13 0.92 1.00 1.02 0.87 0.90 0.88 0.87 0.89 0.79 0.62 0.53 0.40 0.34 0.34 0.25 0.26 0.28 0.36 0.35
0.72 0.70 0.70 0.70 0.72 0.72 0.74 0.76 0.77 0.81 0.90 1.01 1.08 1.11 1.17 1.20 1.22 1.22 1.23 1.21 1.22 1.22 1.22 1.22 1.15 0.88 0.91 0.80 0.97 1.00 1.08 1.01 0.87 0.83 0.73 0.71 0.64 0.51 0.47 0.42 0.26 0.26 0.27 0.28 0.29 0.34 0.38
0.69 0.68 0.67 0.68 0.68 0.70 0.71 0.72 0.72 0.73 0.76 0.79 0.86 0.93 1.00 1.05 1.13 1.17 1.15 1.05 0.90 0.85 0.97 0.82 0.84 0.83 0.86 1.00 1.08 0.98 1.05 0.97 0.92 0.80 0.60 0.65 0.51 0.43 0.47 0.47 0.44 0.37 0.31 0.27 0.31 0.34 0.31
0.68 0.68 0.71 0.71 0.71 0.69 0.68 0.70 0.71 0.73 0.73 0.72 0.71 0.71 0.73 0.76 0.89 1.03 1.07 0.86 0.89 0.90 0.68 0.85 0.83 0.81 0.89 0.94 0.73 0.85 1.05 0.83 0.78 0.63 0.70 0.59 0.48 0.59 0.62 0.59 0.52 0.47 0.39 0.36 0.38 0.42 0.39
0.73 0.72 0.72 0.72 0.70 0.69 0.67 0.65 0.67 0.68 0.69 0.70 0.70 0.68 0.67 0.65 0.67 0.66 0.73 0.78 1.04 0.98 0.65 0.64 0.73 0.66 0.70 0.77 0.65 0.68 0.88 0.83 0.74 0.65 0.65 0.55 0.56 0.65 0.63 0.60 0.54 0.51 0.46 0.43 0.39 0.44 0.44
0.73 0.71 0.72 0.73 0.71 0.69 0.68 0.67 0.66 0.67 0.66 0.67 0.67 0.70 0.68 0.68 0.52 0.52 0.53 0.71 0.84 0.85 0.40 0.36 0.49 0.57 0.66 0.70 0.55 0.73 0.81 0.77 0.71 0.62 0.67 0.63 0.71 0.64 0.61 0.56 0.60 0.46 0.58 0.54 0.50 0.44 0.32
0.74 0.73 0.72 0.71 0.72 0.73 0.73 0.72 0.70 0.68 0.66 0.66 0.68 0.71 0.70 0.68 0.58 0.52 0.60 0.76 0.82 0.62 0.15 0.30 0.43 0.67 0.65 0.55 0.58 0.67 0.81 0.75 0.59 0.63 0.66 0.53 0.60 0.61 0.57 0.56 0.64 0.52 0.61 0.55 0.53 0.47 0.44
0.71 0.71 0.75 0.76 0.74 0.74 0.72 0.72 0.70 0.70 0.69 0.67 0.67 0.69 0.72 0.66 0.63 0.62 0.78 0.75 0.65 0.26 0.11 0.20 0.40 0.41 0.44 0.51 0.54 0.70 0.74 0.80 0.78 0.66 0.69 0.63 0.75 0.67 0.62 0.66 0.66 0.65 0.59 0.55 0.52 0.45 0.31
0.67 0.68 0.71 0.74 0.75 0.73 0.72 0.72 0.71 0.70 0.69 0.68 0.68 0.69 0.68 0.71 0.51 0.77 0.78 0.58 0.26 0.14 0.20 0.17 0.23 0.36 0.38 0.39 0.46 0.54 0.59 0.59 0.52 0.45 0.46 0.55 0.55 0.67 0.68 0.60 0.67 0.62 0.53 0.41 0.36 0.35 0.26
0.62 0.63 0.65 0.71 0.74 0.76 0.74 0.72 0.70 0.69 0.67 0.67 0.67 0.68 0.69 0.71 0.72 0.82 0.67 0.43 0.20 0.17 0.15 0.26 0.28 0.37 0.29 0.36 0.38 0.46 0.48 0.45 0.59 0.54 0.47 0.41 0.37 0.56 0.65 0.59 0.56 0.57 0.55 0.41 0.30 0.28 0.29
0.59 0.62 0.62 0.63 0.71 0.71 0.74 0.73 0.73 0.69 0.66 0.64 0.64 0.62 0.62 0.65 0.71 0.79 0.54 0.30 0.25 0.23 0.28 0.25 0.24 0.23 0.23 0.32 0.36 0.40 0.42 0.39 0.48 0.55 0.43 0.42 0.40 0.59 0.61 0.64 0.63 0.55 0.49 0.59 0.47 0.45 0.36
0.55 0.59 0.59 0.61 0.62 0.67 0.70 0.71 0.71 0.69 0.66 0.64 0.51 0.49 0.50 0.65 0.72 0.63 0.42 0.32 0.33 0.36 0.37 0.35 0.23 0.25 0.19 0.21 0.28 0.33 0.35 0.42 0.43 0.54 0.60 0.50 0.39 0.56 0.60 0.65 0.63 0.59 0.65 0.46 0.46 0.31 0.28
0.52 0.55 0.55 0.57 0.60 0.63 0.62 0.64 0.67 0.65 0.63 0.63 0.48 0.36 0.47 0.61 0.64 0.47 0.30 0.32 0.32 0.39 0.40 0.33 0.32 0.29 0.27 0.24 0.26 0.25 0.27 0.34 0.41 0.43 0.54 0.53 0.50 0.47 0.60 0.53 0.51 0.53 0.52 0.53 0.52 0.46 0.32
0.41 0.46 0.52 0.55 0.56 0.59 0.61 0.62 0.62 0.60 0.57 0.52 0.40 0.25 0.48 0.59 0.34 0.38 0.32 0.35 0.42 0.36 0.40 0.37 0.37 0.34 0.34 0.36 0.29 0.25 0.23 0.31 0.41 0.41 0.33 0.47 0.45 0.40 0.46 0.62 0.65 0.60 0.56 0.54 0.41 0.38 0.43
0.44 0.42 0.41 0.43 0.48 0.55 0.60 0.62 0.59 0.57 0.56 0.44 0.30 0.29 0.47 0.51 0.23 0.25 0.34 0.35 0.40 0.36 0.36 0.38 0.36 0.38 0.39 0.39 0.30 0.32 0.31 0.40 0.44 0.41 0.37 0.44 0.39 0.30 0.35 0.48 0.58 0.53 0.56 0.57 0.55 0.51 0.41
0.43 0.45 0.43 0.41 0.38 0.46 0.56 0.62 0.61 0.58 0.56 0.44 0.30 0.20 0.28 0.38 0.35 0.27 0.25 0.28 0.31 0.40 0.39 0.40 0.36 0.40 0.39 0.36 0.41 0.37 0.38 0.43 0.46 0.44 0.50 0.49 0.38 0.34 0.28 0.37 0.46 0.41 0.47 0.54 0.50 0.40 0.40
0.45 0.44 0.45 0.44 0.42 0.39 0.44 0.51 0.58 0.61 0.59 0.47 0.33 0.23 0.26 0.20 0.22 0.27 0.30 0.29 0.25 0.27 0.37 0.39 0.34 0.32 0.29 0.28 0.31 0.34 0.40 0.42 0.48 0.50 0.48 0.43 0.30 0.35 0.39 0.43 0.45 0.44 0.43 0.45 0.44 0.46 0.38
0.46 0.44 0.43 0.46 0.46 0.41 0.40 0.43 0.50 0.58 0.60 0.45 0.29 0.26 0.28 0.25 0.27 0.24 0.22 0.21 0.26 0.29 0.32 0.31 0.32 0.34 0.35 0.28 0.27 0.25 0.33 0.37 0.37 0.46 0.43 0.45 0.31 0.33 0.27 0.35 0.39 0.38 0.42 0.44 0.45 0.45 0.44
0.52 0.49 0.46 0.43 0.46 0.46 0.43 0.40 0.43 0.53 0.56 0.40 0.38 0.36 0.27 0.23 0.20 0.19 0.18 0.22 0.22 0.30 0.34 0.37 0.35 0.33 0.29 0.31 0.38 0.40 0.40 0.39 0.37 0.36 0.36 0.36 0.35 0.31 0.19 0.29 0.35 0.30 0.32 0.36 0.38 0.40 0.40
0.59 0.55 0.52 0.49 0.48 0.46 0.47 0.42 0.39 0.47 0.51 0.40 0.36 0.32 0.24 0.17 0.18 0.15 0.18 0.19 0.20 0.24 0.25 0.31 0.34 0.31 0.38 0.45 0.46 0.43 0.41 0.39 0.38 0.36 0.41 0.33 0.31 0.33 0.28 0.31 0.21 0.29 0.37 0.38 0.35 0.37 0.40
0.58 0.59 0.57 0.55 0.52 0.50 0.49 0.47 0.41 0.43 0.48 0.41 0.38 0.31 0.24 0.16 0.17 0.16 0.17 0.16 0.17 0.18 0.19 0.20 0.21 0.27 0.32 0.35 0.32 0.28 0.27 0.28 0.28 0.32 0.35 0.36 0.31 0.27 0.24 0.25 0.29 0.26 0.29 0.30 0.31 0.29 0.34
0.56 0.58 0.59 0.58 0.57 0.54 0.53 0.50 0.45 0.42 0.47 0.45 0.39 0.38 0.29 0.20 0.17 0.19 0.16 0.16 0.13 0.13 0.14 0.15 0.23 0.28 0.33 0.30 0.28 0.21 0.18 0.20 0.19 0.22 0.30 0.31 0.30 0.25 0.25 0.20 0.18 0.22 0.31 0.36 0.39 0.22 0.31
0.54 0.56 0.58 0.60 0.59 0.57 0.55 0.53 0.49 0.46 0.45 0.46 0.39 0.41 0.33 0.24 0.25 0.25 0.19 0.18 0.22 0.20 0.15 0.17 0.19 0.24 0.36 0.24 0.24 0.21 0.22 0.27 0.19 0.17 0.21 0.25 0.26 0.21 0.21 0.21 0.26 0.28 0.31 0.38 0.23 0.20 0.30
0.57 0.56 0.55 0.58 0.60 0.59 0.57 0.55 0.52 0.50 0.50 0.49 0.42 0.45 0.36 0.28 0.28 0.29 0.28 0.23 0.24 0.23 0.16 0.20 0.16 0.23 0.25 0.23 0.23 0.23 0.24 0.28 0.24 0.23 0.22 0.23 0.24 0.24 0.26 0.22 0.18 0.33 0.33 0.25 0.26 0.32 0.32
0.56 0.58 0.56 0.55 0.59 0.60 0.59 0.57 0.56 0.54 0.54 0.56 0.42 0.49 0.47 0.36 0.30 0.35 0.33 0.31 0.28 0.27 0.23 0.22 0.17 0.19 0.29 0.26 0.29 0.31 0.27 0.29 0.25 0.19 0.33 0.24 0.28 0.24 0.25 0.22 0.29 0.36 0.35 0.35 0.36 0.35 0.34

GFSGBSN_prec_pwat_162.txt.gz
Precipitable_Water
1.37 1.39 1.40 1.40 1.41 1.41 1.41 1.42 1.42 1.43 1.44 1.44 1.47 1.47 1.47 1.43 1.38 1.29 1.21 1.14 1.10 1.07 1.06 1.04 1.00 0.97 0.85 0.62 0.52 0.68 0.74 0.75 0.77 0.72 0.61 0.54 0.46 0.38 0.30 0.31 0.31 0.29 0.31 0.32 0.32 0.32 0.32
1.26 1.28 1.29 1.30 1.33 1.35 1.35 1.34 1.33 1.34 1.35 1.38 1.40 1.42 1.43 1.45 1.45 1.43 1.41 1.38 1.31 1.26 1.19 1.12 1.09 1.05 0.82 0.50 0.75 0.77 0.79 0.76 0.73 0.69 0.61 0.58 0.49 0.52 0.39 0.33 0.30 0.33 0.32 0.32 0.33 0.32 0.31
1.12 1.15 1.16 1.17 1.20 1.23 1.24 1.22 1.25 1.27 1.29 1.31 1.31 1.33 1.34 1.37 1.40 1.39 1.39 1.37 1.39 1.37 1.34 1.34 1.32 1.23 0.95 0.79 1.04 1.06 0.97 0.81 0.73 0.70 0.58 0.60 0.62 0.54 0.49 0.38 0.42 0.36 0.30 0.32 0.32 0.33 0.30
0.97 0.98 1.00 1.01 1.01 1.03 1.07 1.09 1.11 1.12 1.15 1.20 1.24 1.26 1.27 1.28 1.30 1.32 1.32 1.32 1.30 1.30 1.31 1.31 1.32 1.18 0.80 1.12 1.16 1.06 1.07 0.99 1.02 0.91 0.74 0.70 0.69 0.58 0.52 0.56 0.47 0.37 0.36 0.30 0.33 0.33 0.32
0.83 0.81 0.79 0.84 0.87 0.87 0.90 0.92 0.94 0.96 0.98 1.02 1.08 1.11 1.15 1.18 1.23 1.23 1.24 1.23 1.20 1.22 1.24 1.25 1.12 1.02 0.74 1.12 0.96 1.04 1.05 0.90 0.96 0.98 0.92 0.84 0.75 0.60 0.57 0.46 0.40 0.40 0.30 0.29 0.31 0.35 0.32
0.74 0.72 0.72 0.71 0.71 0.74 0.73 0.77 0.80 0.77 0.77 0.82 0.91 0.95 1.03 1.08 1.11 1.16 1.16 1.18 1.18 1.18 1.18 1.18 1.11 0.86 0.89 0.78 0.96 1.01 1.07 1.03 0.90 0.92 0.85 0.78 0.69 0.55 0.53 0.43 0.30 0.32 0.33 0.35 0.30 0.34 0.36
0.67 0.70 0.74 0.75 0.73 0.74 0.72 0.72 0.73 0.72 0.71 0.74 0.73 0.75 0.82 0.87 0.98 1.04 1.05 1.00 0.86 0.83 0.93 0.76 0.78 0.76 0.83 0.97 1.05 0.95 1.03 0.95 0.91 0.82 0.63 0.74 0.55 0.43 0.46 0.47 0.46 0.41 0.39 0.37 0.37 0.36 0.30
0.64 0.65 0.68 0.69 0.69 0.70 0.71 0.70 0.71 0.71 0.71 0.70 0.70 0.68 0.68 0.68 0.72 0.81 0.87 0.68 0.77 0.83 0.60 0.76 0.79 0.81 0.88 0.94 0.72 0.82 0.97 0.74 0.75 0.62 0.69 0.63 0.48 0.57 0.59 0.54 0.52 0.49 0.45 0.44 0.48 0.50 0.43
0.73 0.71 0.71 0.71 0.73 0.73 0.73 0.71 0.72 0.72 0.70 0.69 0.69 0.66 0.65 0.63 0.63 0.59 0.55 0.57 0.80 0.81 0.50 0.46 0.57 0.61 0.68 0.77 0.60 0.65 0.78 0.71 0.65 0.62 0.64 0.56 0.55 0.64 0.60 0.57 0.55 0.53 0.49 0.49 0.48 0.54 0.53
0.77 0.75 0.75 0.76 0.75 0.76 0.75 0.73 0.71 0.71 0.71 0.69 0.71 0.68 0.68 0.65 0.51 0.50 0.45 0.63 0.70 0.71 0.25 0.20 0.32 0.42 0.52 0.58 0.46 0.62 0.72 0.70 0.63 0.55 0.65 0.59 0.68 0.63 0.60 0.54 0.60 0.48 0.62 0.59 0.55 0.51 0.39
0.75 0.75 0.73 0.74 0.74 0.75 0.76 0.76 0.74 0.74 0.74 0.72 0.72 0.74 0.73 0.70 0.60 0.51 0.56 0.68 0.76 0.59 0.10 0.23 0.34 0.56 0.54 0.45 0.49 0.54 0.67 0.65 0.51 0.55 0.60 0.44 0.57 0.60 0.56 0.56 0.65 0.53 0.68 0.62 0.59 0.52 0.49
0.71 0.72 0.74 0.74 0.74 0.74 0.74 0.75 0.77 0.78 0.76 0.74 0.71 0.70 0.74 0.71 0.68 0.64 0.76 0.75 0.68 0.28 0.10 0.16 0.36 0.36 0.39 0.45 0.48 0.62 0.60 0.65 0.63 0.53 0.58 0.52 0.68 0.62 0.60 0.68 0.69 0.69 0.63 0.61 0.58 0.52 0.36
0.65 0.66 0.69 0.70 0.71 0.74 0.76 0.78 0.78 0.76 0.74 0.74 0.73 0.72 0.69 0.70 0.55 0.75 0.77 0.64 0.33 0.21 0.21 0.14 0.21 0.32 0.34 0.37 0.41 0.47 0.49 0.46 0.42 0.37 0.36 0.45 0.48 0.60 0.67 0.57 0.64 0.62 0.57 0.41 0.38 0.36 0.28
0.63 0.62 0.62 0.64 0.66 0.71 0.72 0.77 0.76 0.75 0.74 0.72 0.71 0.71 0.71 0.68 0.74 0.74 0.67 0.45 0.23 0.21 0.22 0.26 0.29 0.34 0.29 0.35 0.37 0.40 0.43 0.43 0.54 0.49 0.39 0.35 0.31 0.46 0.53 0.54 0.52 0.54 0.55 0.38 0.31 0.31 0.31
0.58 0.58 0.60 0.62 0.61 0.64 0.70 0.73 0.76 0.75 0.73 0.70 0.67 0.63 0.60 0.68 0.76 0.74 0.53 0.30 0.24 0.25 0.29 0.30 0.24 0.27 0.27 0.33 0.35 0.38 0.40 0.41 0.48 0.53 0.36 0.32 0.33 0.52 0.54 0.54 0.58 0.52 0.48 0.56 0.47 0.47 0.39
0.57 0.58 0.57 0.58 0.61 0.60 0.66 0.70 0.71 0.72 0.73 0.71 0.58 0.55 0.51 0.64 0.72 0.61 0.41 0.31 0.34 0.39 0.40 0.38 0.25 0.25 0.21 0.24 0.31 0.32 0.32 0.41 0.40 0.51 0.56 0.45 0.36 0.50 0.55 0.61 0.60 0.54 0.62 0.47 0.48 0.32 0.30
0.50 0.55 0.56 0.55 0.59 0.60 0.64 0.67 0.67 0.67 0.69 0.71 0.57 0.42 0.51 0.60 0.63 0.46 0.29 0.31 0.39 0.45 0.46 0.36 0.31 0.31 0.30 0.29 0.29 0.26 0.29 0.37 0.49 0.48 0.55 0.52 0.48 0.43 0.53 0.47 0.45 0.51 0.50 0.51 0.51 0.47 0.34
0.47 0.44 0.48 0.52 0.56 0.58 0.60 0.65 0.63 0.65 0.67 0.64 0.50 0.32 0.54 0.59 0.33 0.37 0.30 0.36 0.42 0.38 0.46 0.42 0.41 0.38 0.33 0.34 0.33 0.29 0.26 0.32 0.50 0.45 0.36 0.40 0.42 0.33 0.37 0.52 0.59 0.61 0.55 0.54 0.40 0.37 0.43
0.49 0.47 0.45 0.42 0.51 0.56 0.56 0.61 0.64 0.65 0.65 0.55 0.39 0.37 0.51 0.53 0.25 0.25 0.30 0.33 0.37 0.36 0.38 0.40 0.36 0.37 0.36 0.30 0.28 0.31 0.37 0.49 0.47 0.42 0.36 0.38 0.31 0.25 0.29 0.40 0.51 0.46 0.49 0.54 0.53 0.50 0.40
0.44 0.47 0.47 0.43 0.40 0.42 0.48 0.55 0.62 0.63 0.63 0.53 0.38 0.26 0.34 0.39 0.36 0.28 0.25 0.26 0.27 0.40 0.38 0.38 0.37 0.38 0.34 0.33 0.38 0.32 0.35 0.45 0.48 0.45 0.49 0.49 0.37 0.30 0.23 0.34 0.42 0.38 0.46 0.51 0.48 0.37 0.41
0.42 0.43 0.43 0.44 0.43 0.40 0.38 0.47 0.60 0.63 0.62 0.51 0.36 0.27 0.30 0.22 0.24 0.27 0.28 0.26 0.24 0.24 0.31 0.34 0.33 0.33 0.33 0.29 0.31 0.31 0.35 0.39 0.46 0.50 0.50 0.45 0.34 0.36 0.34 0.38 0.39 0.36 0.38 0.40 0.41 0.45 0.37
0.47 0.45 0.45 0.45 0.44 0.44 0.41 0.39 0.52 0.60 0.62 0.45 0.31 0.28 0.29 0.27 0.26 0.23 0.24 0.23 0.25 0.26 0.30 0.29 0.29 0.31 0.35 0.30 0.29 0.27 0.33 0.32 0.33 0.39 0.39 0.44 0.33 0.38 0.30 0.35 0.34 0.30 0.31 0.35 0.37 0.40 0.44
0.55 0.52 0.49 0.47 0.47 0.46 0.46 0.42 0.40 0.55 0.57 0.42 0.43 0.40 0.32 0.26 0.24 0.23 0.22 0.22 0.22 0.26 0.25 0.32 0.32 0.30 0.30 0.34 0.37 0.37 0.40 0.38 0.37 0.35 0.34 0.34 0.33 0.29 0.24 0.33 0.31 0.25 0.27 0.30 0.30 0.37 0.39
0.60 0.57 0.55 0.52 0.48 0.46 0.46 0.46 0.41 0.47 0.50 0.44 0.41 0.36 0.29 0.22 0.22 0.21 0.22 0.21 0.20 0.20 0.22 0.27 0.31 0.29 0.34 0.40 0.34 0.36 0.36 0.34 0.35 0.34 0.40 0.31 0.31 0.31 0.23 0.26 0.18 0.33 0.38 0.38 0.36 0.36 0.38
0.55 0.58 0.59 0.57 0.54 0.49 0.45 0.48 0.47 0.44 0.52 0.45 0.43 0.35 0.30 0.21 0.22 0.21 0.21 0.20 0.20 0.19 0.18 0.21 0.22 0.25 0.27 0.26 0.25 0.26 0.26 0.27 0.25 0.30 0.32 0.37 0.31 0.26 0.21 0.21 0.24 0.29 0.34 0.35 0.32 0.29 0.36
0.51 0.55 0.57 0.59 0.57 0.54 0.49 0.48 0.48 0.46 0.47 0.47 0.45 0.44 0.33 0.23 0.19 0.22 0.19 0.19 0.17 0.16 0.16 0.17 0.22 0.29 0.30 0.24 0.20 0.18 0.18 0.21 0.21 0.23 0.29 0.33 0.35 0.26 0.22 0.19 0.17 0.22 0.32 0.38 0.40 0.24 0.33
0.52 0.52 0.55 0.58 0.60 0.57 0.54 0.51 0.50 0.49 0.46 0.46 0.43 0.44 0.34 0.24 0.25 0.24 0.19 0.18 0.20 0.17 0.15 0.18 0.21 0.21 0.25 0.21 0.19 0.17 0.17 0.25 0.20 0.20 0.24 0.26 0.29 0.23 0.21 0.20 0.21 0.23 0.28 0.35 0.21 0.21 0.32
0.57 0.55 0.54 0.56 0.59 0.59 0.57 0.55 0.54 0.52 0.48 0.45 0.41 0.44 0.34 0.28 0.27 0.29 0.27 0.24 0.23 0.23 0.18 0.22 0.20 0.21 0.19 0.17 0.19 0.19 0.19 0.22 0.25 0.26 0.26 0.25 0.24 0.23 0.24 0.21 0.17 0.28 0.30 0.27 0.26 0.34 0.35
0.58 0.57 0.56 0.55 0.57 0.60 0.59 0.57 0.57 0.55 0.51 0.47 0.40 0.47 0.44 0.33 0.30 0.36 0.34 0.33 0.30 0.30 0.27 0.26 0.22 0.20 0.22 0.22 0.25 0.25 0.22 0.24 0.25 0.20 0.29 0.22 0.26 0.25 0.26 0.24 0.34 0.38 0.36 0.41 0.42 0.36 0.36

GFSGBSN_prec_pwat_165.txt.gz
Precipitable_Water
1.37 1.38 1.39 1.39 1.39 1.40 1.41 1.40 1.41 1.39 1.40 1.41 1.42 1.43 1.42 1.42 1.43 1.42 1.41 1.40 1.36 1.29 1.24 1.19 1.14 1.10 0.93 0.63 0.59 0.71 0.75 0.71 0.67 0.63 0.58 0.54 0.50 0.45 0.40 0.37 0.36 0.32 0.31 0.31 0.30 0.32 0.31
1.27 1.27 1.28 1.29 1.31 1.32 1.34 1.34 1.34 1.35 1.33 1.33 1.35 1.37 1.39 1.41 1.41 1.42 1.43 1.41 1.39 1.38 1.36 1.36 1.34 1.31 1.06 0.68 0.92 0.87 0.84 0.81 0.72 0.69 0.65 0.63 0.56 0.54 0.49 0.45 0.37 0.36 0.34 0.32 0.31 0.31 0.32
1.17 1.15 1.16 1.17 1.19 1.22 1.24 1.24 1.26 1.28 1.28 1.27 1.27 1.28 1.30 1.31 1.32 1.34 1.36 1.38 1.38 1.36 1.35 1.35 1.34 1.26 0.98 0.82 1.10 1.08 1.05 0.99 1.00 0.91 0.68 0.64 0.64 0.55 0.53 0.45 0.50 0.44 0.34 0.34 0.32 0.33 0.32
1.11 1.06 1.03 1.04 1.07 1.09 1.11 1.11 1.11 1.11 1.14 1.14 1.13 1.13 1.16 1.23 1.25 1.26 1.28 1.29 1.28 1.28 1.28 1.28 1.31 1.19 0.80 1.10 1.13 1.04 1.04 0.98 1.04 1.02 0.93 0.91 0.80 0.60 0.55 0.56 0.46 0.42 0.44 0.35 0.37 0.38 0.37
0.97 0.93 0.91 0.89 0.89 0.92 0.93 0.94 0.95 0.95 0.95 0.96 0.98 1.01 1.05 1.07 1.11 1.15 1.17 1.19 1.19 1.18 1.20 1.22 1.11 1.02 0.73 1.08 0.93 1.02 1.02 0.88 0.95 0.99 0.99 0.92 0.82 0.64 0.56 0.45 0.39 0.41 0.34 0.37 0.37 0.41 0.38
0.93 0.89 0.84 0.79 0.76 0.76 0.78 0.79 0.78 0.80 0.78 0.77 0.80 0.84 0.88 0.94 1.00 1.03 1.07 1.09 1.09 1.07 1.11 1.12 1.05 0.83 0.83 0.75 0.92 0.99 1.04 0.99 0.88 0.90 0.88 0.84 0.74 0.60 0.55 0.46 0.32 0.36 0.36 0.38 0.37 0.42 0.36
0.83 0.80 0.78 0.75 0.76 0.73 0.71 0.69 0.70 0.72 0.71 0.71 0.74 0.71 0.73 0.75 0.79 0.85 0.91 0.90 0.76 0.75 0.85 0.68 0.72 0.69 0.75 0.94 0.99 0.91 1.00 0.93 0.90 0.83 0.65 0.77 0.62 0.50 0.54 0.55 0.52 0.46 0.39 0.36 0.39 0.44 0.38
0.78 0.79 0.76 0.74 0.76 0.76 0.73 0.71 0.69 0.70 0.69 0.68 0.71 0.69 0.67 0.66 0.65 0.68 0.71 0.61 0.67 0.78 0.53 0.67 0.66 0.68 0.75 0.81 0.66 0.78 0.96 0.78 0.72 0.58 0.69 0.65 0.50 0.63 0.65 0.59 0.51 0.48 0.44 0.42 0.48 0.53 0.49
0.84 0.81 0.77 0.74 0.75 0.77 0.76 0.75 0.75 0.75 0.74 0.73 0.73 0.71 0.68 0.65 0.63 0.56 0.51 0.54 0.73 0.72 0.39 0.35 0.42 0.43 0.48 0.62 0.49 0.54 0.75 0.71 0.64 0.56 0.57 0.54 0.48 0.68 0.64 0.57 0.50 0.49 0.45 0.48 0.48 0.55 0.57
0.82 0.82 0.81 0.79 0.77 0.78 0.82 0.82 0.81 0.79 0.77 0.77 0.76 0.73 0.70 0.68 0.52 0.56 0.46 0.62 0.65 0.68 0.23 0.16 0.25 0.33 0.40 0.44 0.40 0.57 0.60 0.57 0.55 0.46 0.53 0.49 0.55 0.60 0.61 0.54 0.56 0.45 0.58 0.57 0.53 0.51 0.39
0.80 0.79 0.79 0.79 0.78 0.79 0.80 0.80 0.81 0.79 0.77 0.76 0.75 0.76 0.77 0.73 0.64 0.55 0.66 0.69 0.74 0.64 0.12 0.13 0.23 0.52 0.47 0.39 0.41 0.48 0.58 0.53 0.38 0.43 0.53 0.33 0.46 0.51 0.53 0.52 0.63 0.50 0.64 0.63 0.63 0.55 0.54
0.75 0.74 0.73 0.72 0.73 0.74 0.74 0.75 0.77 0.78 0.78 0.78 0.77 0.77 0.77 0.73 0.69 0.66 0.77 0.81 0.73 0.34 0.18 0.18 0.32 0.32 0.34 0.37 0.38 0.53 0.51 0.55 0.54 0.47 0.53 0.42 0.58 0.54 0.54 0.57 0.60 0.64 0.63 0.64 0.63 0.56 0.40
0.73 0.72 0.70 0.69 0.68 0.70 0.71 0.72 0.72 0.72 0.75 0.76 0.76 0.75 0.73 0.72 0.60 0.77 0.76 0.64 0.36 0.27 0.29 0.22 0.26 0.37 0.38 0.37 0.39 0.44 0.46 0.40 0.36 0.32 0.32 0.36 0.39 0.45 0.57 0.51 0.55 0.55 0.52 0.40 0.36 0.38 0.30
0.70 0.68 0.66 0.64 0.65 0.67 0.68 0.70 0.72 0.74 0.73 0.77 0.75 0.74 0.72 0.69 0.74 0.77 0.74 0.48 0.27 0.26 0.27 0.30 0.31 0.31 0.34 0.38 0.40 0.45 0.43 0.39 0.47 0.48 0.36 0.34 0.28 0.41 0.45 0.47 0.44 0.46 0.46 0.35 0.25 0.29 0.30
0.66 0.64 0.63 0.63 0.62 0.62 0.65 0.67 0.67 0.69 0.75 0.78 0.76 0.69 0.65 0.69 0.74 0.76 0.54 0.31 0.30 0.26 0.29 0.30 0.29 0.25 0.23 0.33 0.34 0.37 0.40 0.36 0.42 0.47 0.38 0.36 0.32 0.42 0.59 0.58 0.55 0.42 0.43 0.48 0.41 0.38 0.36
0.59 0.60 0.59 0.59 0.60 0.62 0.62 0.65 0.66 0.66 0.72 0.77 0.64 0.59 0.57 0.68 0.74 0.65 0.43 0.32 0.34 0.39 0.36 0.41 0.30 0.32 0.26 0.23 0.28 0.34 0.35 0.40 0.40 0.49 0.53 0.44 0.36 0.43 0.48 0.60 0.59 0.51 0.55 0.43 0.45 0.28 0.27
0.52 0.54 0.56 0.58 0.57 0.57 0.60 0.61 0.65 0.66 0.66 0.71 0.59 0.46 0.54 0.67 0.70 0.51 0.31 0.33 0.35 0.41 0.45 0.39 0.33 0.32 0.32 0.29 0.26 0.26 0.31 0.42 0.50 0.48 0.54 0.49 0.46 0.34 0.48 0.44 0.42 0.50 0.46 0.52 0.49 0.42 0.30
0.51 0.47 0.46 0.52 0.54 0.55 0.55 0.58 0.65 0.68 0.68 0.62 0.50 0.35 0.60 0.67 0.39 0.39 0.32 0.33 0.40 0.36 0.48 0.44 0.42 0.37 0.36 0.37 0.38 0.35 0.31 0.39 0.54 0.53 0.46 0.48 0.51 0.37 0.45 0.53 0.62 0.54 0.50 0.51 0.41 0.38 0.41
0.50 0.51 0.48 0.45 0.45 0.51 0.52 0.57 0.67 0.69 0.66 0.56 0.40 0.42 0.62 0.60 0.29 0.28 0.31 0.32 0.35 0.34 0.35 0.40 0.38 0.40 0.41 0.34 0.33 0.37 0.36 0.52 0.51 0.48 0.43 0.45 0.35 0.28 0.28 0.35 0.46 0.43 0.44 0.51 0.48 0.47 0.38
0.47 0.47 0.48 0.48 0.44 0.43 0.48 0.55 0.59 0.64 0.66 0.57 0.41 0.30 0.41 0.47 0.40 0.32 0.27 0.27 0.29 0.38 0.34 0.38 0.36 0.38 0.37 0.33 0.38 0.36 0.33 0.42 0.45 0.47 0.50 0.48 0.36 0.29 0.24 0.27 0.41 0.40 0.43 0.45 0.42 0.34 0.37
0.39 0.43 0.44 0.44 0.46 0.44 0.42 0.46 0.52 0.61 0.60 0.55 0.40 0.32 0.36 0.28 0.31 0.33 0.32 0.31 0.26 0.24 0.31 0.35 0.29 0.33 0.34 0.28 0.32 0.31 0.35 0.36 0.39 0.42 0.45 0.43 0.31 0.34 0.33 0.35 0.38 0.43 0.42 0.43 0.38 0.37 0.34
0.52 0.45 0.43 0.43 0.43 0.47 0.44 0.41 0.40 0.53 0.58 0.48 0.34 0.33 0.37 0.34 0.31 0.29 0.30 0.28 0.24 0.25 0.30 0.29 0.29 0.31 0.33 0.29 0.30 0.28 0.35 0.36 0.31 0.38 0.38 0.41 0.31 0.34 0.28 0.31 0.35 0.34 0.35 0.35 0.37 0.35 0.36
0.57 0.55 0.50 0.45 0.44 0.44 0.45 0.43 0.40 0.49 0.58 0.44 0.47 0.41 0.36 0.28 0.28 0.26 0.24 0.24 0.23 0.26 0.25 0.29 0.29 0.29 0.27 0.33 0.36 0.36 0.34 0.34 0.36 0.34 0.34 0.36 0.31 0.28 0.23 0.29 0.34 0.26 0.29 0.30 0.31 0.34 0.32
0.53 0.57 0.57 0.52 0.47 0.47 0.45 0.46 0.44 0.45 0.52 0.47 0.45 0.41 0.33 0.25 0.26 0.25 0.26 0.27 0.25 0.24 0.22 0.25 0.30 0.30 0.32 0.37 0.33 0.32 0.31 0.33 0.34 0.32 0.35 0.31 0.31 0.30 0.23 0.25 0.18 0.30 0.42 0.38 0.37 0.35 0.37
0.52 0.52 0.57 0.58 0.54 0.50 0.48 0.49 0.47 0.46 0.46 0.47 0.47 0.41 0.33 0.26 0.28 0.26 0.24 0.24 0.24 0.24 0.22 0.22 0.23 0.26 0.28 0.25 0.25 0.23 0.21 0.26 0.25 0.29 0.30 0.32 0.31 0.25 0.21 0.21 0.23 0.24 0.29 0.31 0.35 0.35 0.40
0.55 0.51 0.53 0.59 0.59 0.55 0.51 0.48 0.48 0.47 0.47 0.46 0.46 0.46 0.39 0.27 0.24 0.28 0.24 0.24 0.21 0.20 0.20 0.21 0.25 0.25 0.26 0.24 0.20 0.17 0.16 0.22 0.21 0.25 0.32 0.32 0.33 0.28 0.23 0.19 0.17 0.20 0.31 0.39 0.39 0.24 0.36
0.59 0.53 0.51 0.54 0.61 0.58 0.55 0.51 0.48 0.49 0.47 0.47 0.43 0.44 0.38 0.28 0.28 0.26 0.21 0.21 0.21 0.20 0.20 0.22 0.24 0.25 0.26 0.20 0.18 0.18 0.18 0.20 0.17 0.20 0.25 0.28 0.27 0.23 0.23 0.21 0.22 0.23 0.28 0.31 0.23 0.20 0.35
0.59 0.54 0.50 0.53 0.58 0.60 0.57 0.55 0.50 0.48 0.52 0.48 0.44 0.47 0.39 0.31 0.29 0.29 0.28 0.25 0.23 0.23 0.20 0.28 0.25 0.24 0.23 0.19 0.18 0.19 0.19 0.21 0.19 0.20 0.22 0.22 0.27 0.23 0.25 0.22 0.18 0.31 0.28 0.23 0.24 0.30 0.34
0.58 0.54 0.51 0.51 0.56 0.59 0.60 0.57 0.54 0.50 0.50 0.50 0.41 0.50 0.48 0.37 0.32 0.36 0.35 0.34 0.31 0.30 0.30 0.29 0.26 0.24 0.23 0.21 0.24 0.25 0.21 0.24 0.21 0.17 0.27 0.21 0.31 0.28 0.28 0.25 0.32 0.38 0.33 0.42 0.43 0.43 0.44

GFSGBSN_prec_pwat_171.txt.gz
Precipitable_Water
1.52 1.53 1.54 1.54 1.52 1.47 1.44 1.42 1.40 1.39 1.38 1.37 1.36 1.35 1.33 1.33 1.33 1.34 1.35 1.35 1.33 1.33 1.35 1.33 1.29 1.25 1.10 0.83 0.77 1.03 1.08 1.09 0.99 0.86 0.76 0.69 0.61 0.55 0.46 0.47 0.47 0.44 0.45 0.45 0.43 0.43 0.40
1.52 1.49 1.46 1.44 1.43 1.42 1.41 1.40 1.37 1.36 1.34 1.33 1.33 1.32 1.31 1.30 1.29 1.29 1.29 1.29 1.30 1.31 1.32 1.31 1.30 1.28 1.03 0.68 1.07 1.12 1.12 1.06 0.94 0.86 0.83 0.83 0.74 0.72 0.59 0.51 0.47 0.49 0.45 0.43 0.41 0.40 0.40
1.48 1.44 1.41 1.40 1.38 1.37 1.35 1.33 1.30 1.29 1.30 1.29 1.27 1.26 1.26 1.25 1.24 1.22 1.22 1.22 1.21 1.21 1.20 1.20 1.21 1.14 0.90 0.77 1.07 1.07 1.03 0.98 1.01 0.97 0.85 0.89 0.88 0.78 0.72 0.58 0.58 0.51 0.41 0.42 0.42 0.43 0.40
1.47 1.42 1.38 1.34 1.31 1.28 1.27 1.24 1.22 1.20 1.18 1.18 1.18 1.18 1.17 1.16 1.14 1.12 1.10 1.11 1.10 1.09 1.07 1.06 1.09 1.00 0.70 1.00 1.05 0.96 0.95 0.91 0.98 0.99 0.92 0.93 0.95 0.83 0.75 0.75 0.63 0.52 0.48 0.34 0.42 0.44 0.42
1.43 1.39 1.34 1.30 1.25 1.22 1.19 1.16 1.13 1.12 1.10 1.08 1.08 1.06 1.03 1.01 1.00 1.00 0.99 0.99 0.99 0.99 1.00 1.02 0.90 0.84 0.58 0.93 0.77 0.85 0.90 0.77 0.85 0.92 0.95 0.97 0.90 0.76 0.76 0.61 0.52 0.53 0.34 0.35 0.36 0.47 0.45
1.37 1.35 1.31 1.26 1.21 1.17 1.12 1.08 1.06 1.03 1.01 0.99 0.94 0.91 0.87 0.83 0.81 0.80 0.80 0.80 0.83 0.86 0.87 0.92 0.85 0.65 0.67 0.58 0.78 0.81 0.89 0.85 0.74 0.76 0.77 0.77 0.74 0.62 0.62 0.56 0.34 0.38 0.38 0.38 0.34 0.43 0.49
1.31 1.31 1.28 1.23 1.17 1.13 1.07 1.02 0.95 0.92 0.90 0.87 0.82 0.81 0.78 0.74 0.70 0.66 0.62 0.59 0.50 0.53 0.67 0.47 0.47 0.45 0.47 0.65 0.76 0.71 0.78 0.80 0.76 0.66 0.51 0.63 0.54 0.44 0.52 0.55 0.52 0.50 0.47 0.41 0.43 0.48 0.50
1.23 1.23 1.21 1.17 1.12 1.05 1.01 0.95 0.90 0.87 0.84 0.83 0.80 0.80 0.75 0.72 0.69 0.65 0.58 0.41 0.52 0.64 0.39 0.51 0.50 0.49 0.52 0.49 0.42 0.50 0.71 0.55 0.57 0.44 0.55 0.54 0.37 0.52 0.60 0.60 0.55 0.54 0.49 0.44 0.48 0.54 0.56
1.14 1.13 1.11 1.10 1.06 1.01 0.94 0.89 0.86 0.85 0.83 0.82 0.80 0.79 0.76 0.73 0.69 0.59 0.51 0.50 0.57 0.65 0.37 0.33 0.34 0.31 0.36 0.44 0.29 0.30 0.40 0.49 0.44 0.41 0.50 0.42 0.32 0.53 0.57 0.53 0.50 0.52 0.46 0.46 0.45 0.55 0.55
1.09 1.08 1.05 1.04 1.00 0.97 0.92 0.88 0.87 0.85 0.84 0.82 0.82 0.82 0.80 0.75 0.57 0.65 0.60 0.76 0.70 0.63 0.23 0.21 0.24 0.27 0.34 0.39 0.30 0.38 0.43 0.38 0.38 0.37 0.47 0.41 0.47 0.48 0.49 0.41 0.51 0.42 0.51 0.53 0.49 0.47 0.36
1.05 1.03 0.99 0.98 0.97 0.95 0.93 0.93 0.95 0.93 0.91 0.89 0.89 0.87 0.85 0.81 0.70 0.64 0.72 0.88 0.81 0.60 0.16 0.22 0.25 0.33 0.34 0.30 0.30 0.37 0.47 0.46 0.28 0.30 0.44 0.25 0.36 0.38 0.33 0.35 0.48 0.36 0.46 0.46 0.47 0.47 0.47
0.99 0.99 0.97 0.95 0.94 0.93 0.92 0.89 0.88 0.87 0.86 0.86 0.86 0.85 0.84 0.78 0.73 0.70 0.77 0.78 0.69 0.34 0.19 0.26 0.30 0.32 0.34 0.34 0.30 0.35 0.48 0.48 0.43 0.37 0.46 0.34 0.47 0.43 0.35 0.42 0.45 0.45 0.45 0.50 0.50 0.45 0.41
0.96 0.95 0.94 0.92 0.90 0.88 0.87 0.87 0.86 0.86 0.85 0.85 0.85 0.83 0.80 0.76 0.59 0.81 0.80 0.68 0.39 0.28 0.32 0.25 0.26 0.31 0.37 0.32 0.33 0.33 0.31 0.45 0.35 0.31 0.30 0.35 0.29 0.38 0.41 0.39 0.40 0.41 0.42 0.33 0.31 0.30 0.26
0.93 0.90 0.88 0.86 0.83 0.81 0.80 0.79 0.79 0.78 0.78 0.79 0.81 0.80 0.77 0.74 0.73 0.77 0.71 0.47 0.27 0.28 0.26 0.29 0.31 0.34 0.32 0.35 0.34 0.35 0.37 0.34 0.47 0.45 0.36 0.31 0.25 0.28 0.35 0.33 0.27 0.34 0.36 0.32 0.19 0.21 0.22
0.87 0.85 0.84 0.82 0.80 0.76 0.75 0.73 0.73 0.73 0.73 0.73 0.73 0.66 0.62 0.65 0.68 0.69 0.52 0.30 0.30 0.31 0.32 0.33 0.36 0.28 0.28 0.32 0.36 0.33 0.35 0.40 0.43 0.45 0.40 0.40 0.34 0.35 0.41 0.46 0.44 0.26 0.32 0.35 0.40 0.37 0.33
0.81 0.81 0.81 0.80 0.78 0.76 0.73 0.71 0.70 0.72 0.72 0.73 0.61 0.55 0.50 0.64 0.69 0.61 0.40 0.28 0.30 0.35 0.37 0.37 0.33 0.36 0.28 0.31 0.34 0.36 0.36 0.44 0.45 0.52 0.62 0.52 0.39 0.45 0.48 0.57 0.59 0.50 0.49 0.38 0.40 0.28 0.25
0.78 0.77 0.77 0.77 0.75 0.72 0.70 0.69 0.68 0.70 0.70 0.70 0.57 0.42 0.49 0.60 0.64 0.50 0.31 0.29 0.31 0.34 0.37 0.36 0.35 0.36 0.36 0.34 0.38 0.38 0.40 0.48 0.52 0.48 0.56 0.55 0.47 0.35 0.47 0.46 0.39 0.46 0.44 0.48 0.51 0.46 0.29
0.72 0.71 0.71 0.71 0.70 0.68 0.66 0.65 0.65 0.69 0.70 0.67 0.52 0.30 0.48 0.60 0.36 0.39 0.32 0.35 0.38 0.33 0.39 0.40 0.44 0.37 0.36 0.37 0.35 0.36 0.37 0.43 0.56 0.55 0.45 0.51 0.45 0.36 0.39 0.47 0.56 0.57 0.51 0.54 0.40 0.39 0.45
0.60 0.59 0.60 0.61 0.61 0.64 0.64 0.62 0.61 0.64 0.67 0.57 0.41 0.38 0.50 0.53 0.26 0.27 0.37 0.39 0.39 0.34 0.33 0.40 0.38 0.41 0.42 0.35 0.30 0.35 0.38 0.47 0.54 0.50 0.44 0.46 0.38 0.28 0.29 0.37 0.50 0.48 0.51 0.51 0.48 0.46 0.33
0.49 0.54 0.57 0.57 0.56 0.55 0.56 0.57 0.59 0.60 0.64 0.57 0.42 0.29 0.37 0.43 0.40 0.30 0.27 0.29 0.29 0.40 0.35 0.37 0.37 0.40 0.37 0.33 0.35 0.30 0.29 0.34 0.38 0.41 0.51 0.49 0.37 0.32 0.26 0.32 0.40 0.36 0.40 0.44 0.44 0.35 0.36
0.53 0.47 0.46 0.50 0.53 0.53 0.51 0.47 0.55 0.55 0.59 0.56 0.41 0.30 0.36 0.27 0.28 0.31 0.32 0.27 0.25 0.32 0.38 0.39 0.34 0.35 0.32 0.25 0.25 0.25 0.28 0.29 0.30 0.39 0.45 0.43 0.29 0.30 0.30 0.30 0.34 0.34 0.32 0.34 0.33 0.36 0.33
0.52 0.53 0.52 0.42 0.45 0.48 0.51 0.48 0.43 0.50 0.59 0.48 0.35 0.33 0.36 0.32 0.33 0.30 0.29 0.25 0.24 0.32 0.35 0.33 0.31 0.34 0.33 0.27 0.26 0.22 0.24 0.24 0.23 0.30 0.29 0.39 0.28 0.33 0.27 0.29 0.29 0.29 0.30 0.32 0.30 0.32 0.33
0.53 0.51 0.53 0.55 0.46 0.44 0.46 0.49 0.47 0.47 0.48 0.41 0.47 0.48 0.39 0.32 0.29 0.27 0.27 0.29 0.32 0.35 0.37 0.39 0.33 0.31 0.27 0.27 0.30 0.29 0.28 0.26 0.23 0.21 0.22 0.27 0.28 0.28 0.20 0.24 0.26 0.21 0.22 0.24 0.24 0.28 0.31
0.50 0.53 0.52 0.53 0.56 0.49 0.47 0.48 0.50 0.49 0.49 0.43 0.42 0.42 0.33 0.25 0.28 0.25 0.27 0.29 0.30 0.34 0.31 0.33 0.32 0.27 0.29 0.32 0.29 0.26 0.22 0.19 0.18 0.17 0.21 0.21 0.24 0.26 0.20 0.21 0.14 0.18 0.22 0.22 0.21 0.25 0.33
0.56 0.52 0.53 0.52 0.55 0.57 0.50 0.49 0.51 0.51 0.49 0.42 0.43 0.38 0.31 0.27 0.28 0.28 0.29 0.29 0.31 0.32 0.29 0.29 0.28 0.29 0.31 0.26 0.18 0.14 0.12 0.12 0.14 0.17 0.19 0.23 0.23 0.22 0.19 0.16 0.16 0.12 0.13 0.18 0.19 0.17 0.21
0.60 0.57 0.53 0.54 0.53 0.57 0.57 0.50 0.48 0.49 0.52 0.44 0.40 0.44 0.36 0.31 0.28 0.37 0.31 0.31 0.26 0.25 0.25 0.26 0.29 0.31 0.28 0.21 0.18 0.13 0.10 0.11 0.10 0.14 0.24 0.28 0.27 0.24 0.21 0.15 0.09 0.13 0.18 0.30 0.30 0.16 0.32
0.57 0.58 0.58 0.55 0.55 0.55 0.58 0.56 0.50 0.48 0.51 0.48 0.38 0.47 0.41 0.33 0.35 0.34 0.29 0.28 0.32 0.28 0.24 0.24 0.23 0.23 0.26 0.20 0.16 0.14 0.12 0.15 0.11 0.11 0.13 0.21 0.27 0.22 0.22 0.19 0.18 0.26 0.30 0.30 0.17 0.22 0.41
0.58 0.57 0.61 0.55 0.57 0.55 0.56 0.59 0.54 0.51 0.49 0.49 0.38 0.44 0.44 0.36 0.37 0.38 0.38 0.32 0.30 0.28 0.21 0.25 0.21 0.23 0.22 0.19 0.18 0.16 0.15 0.16 0.16 0.17 0.16 0.18 0.20 0.21 0.23 0.20 0.16 0.39 0.37 0.29 0.39 0.41 0.43
0.59 0.58 0.59 0.54 0.57 0.55 0.55 0.58 0.57 0.52 0.50 0.52 0.37 0.44 0.52 0.43 0.38 0.45 0.42 0.42 0.36 0.30 0.27 0.27 0.23 0.23 0.26 0.22 0.26 0.23 0.20 0.21 0.17 0.14 0.21 0.18 0.25 0.25 0.25 0.25 0.34 0.43 0.41 0.46 0.52 0.49 0.47

GFSGBSN_prec_pwat_174.txt.gz
Precipitable_Water
1.49 1.46 1.44 1.47 1.48 1.51 1.52 1.54 1.52 1.49 1.45 1.39 1.38 1.37 1.36 1.34 1.32 1.29 1.28 1.27 1.27 1.25 1.24 1.23 1.23 1.23 1.11 0.86 0.80 1.05 1.07 1.06 1.05 0.95 0.78 0.74 0.69 0.64 0.52 0.55 0.56 0.49 0.48 0.49 0.48 0.46 0.43
1.53 1.52 1.51 1.50 1.52 1.55 1.55 1.52 1.50 1.47 1.43 1.40 1.39 1.38 1.35 1.33 1.31 1.29 1.27 1.25 1.24 1.23 1.22 1.23 1.21 1.23 0.99 0.66 1.02 1.07 1.08 1.06 1.01 0.93 0.83 0.82 0.76 0.78 0.66 0.60 0.55 0.56 0.54 0.51 0.49 0.45 0.44
1.55 1.57 1.54 1.54 1.56 1.57 1.53 1.47 1.44 1.40 1.39 1.37 1.35 1.33 1.30 1.28 1.26 1.25 1.24 1.21 1.20 1.18 1.16 1.13 1.12 1.07 0.84 0.68 0.93 0.96 0.99 0.93 0.98 0.96 0.83 0.89 0.89 0.78 0.74 0.63 0.70 0.62 0.51 0.51 0.49 0.48 0.44
1.59 1.57 1.56 1.54 1.52 1.48 1.44 1.41 1.39 1.37 1.33 1.30 1.28 1.26 1.23 1.21 1.20 1.18 1.16 1.13 1.11 1.08 1.07 1.06 1.05 0.93 0.62 0.86 0.90 0.79 0.86 0.80 0.88 0.88 0.85 0.88 0.92 0.80 0.73 0.77 0.68 0.58 0.55 0.39 0.46 0.49 0.48
1.56 1.53 1.53 1.51 1.47 1.44 1.42 1.37 1.33 1.29 1.26 1.22 1.18 1.15 1.12 1.09 1.06 1.03 1.00 0.98 0.96 0.96 0.96 0.99 0.87 0.79 0.54 0.86 0.71 0.81 0.85 0.72 0.78 0.80 0.82 0.84 0.81 0.70 0.72 0.59 0.51 0.54 0.35 0.36 0.41 0.50 0.47
1.53 1.51 1.49 1.47 1.44 1.41 1.37 1.32 1.27 1.24 1.21 1.17 1.11 1.07 1.02 0.97 0.93 0.87 0.80 0.74 0.73 0.75 0.78 0.84 0.79 0.57 0.57 0.47 0.64 0.76 0.84 0.80 0.69 0.70 0.67 0.67 0.66 0.56 0.58 0.51 0.29 0.35 0.37 0.37 0.37 0.45 0.49
1.51 1.49 1.46 1.43 1.39 1.35 1.31 1.28 1.23 1.18 1.14 1.09 1.05 1.00 0.94 0.87 0.80 0.73 0.63 0.58 0.51 0.51 0.64 0.42 0.43 0.42 0.47 0.62 0.71 0.65 0.71 0.65 0.63 0.59 0.43 0.52 0.42 0.36 0.42 0.46 0.46 0.46 0.41 0.35 0.40 0.50 0.51
1.45 1.42 1.39 1.35 1.32 1.27 1.24 1.21 1.17 1.12 1.07 1.02 0.95 0.91 0.85 0.79 0.75 0.71 0.62 0.43 0.54 0.57 0.36 0.48 0.45 0.45 0.47 0.46 0.37 0.35 0.63 0.50 0.49 0.39 0.47 0.43 0.30 0.41 0.50 0.49 0.45 0.45 0.40 0.36 0.42 0.54 0.55
1.35 1.32 1.31 1.27 1.25 1.21 1.19 1.18 1.14 1.10 1.03 0.94 0.87 0.85 0.82 0.78 0.74 0.65 0.59 0.56 0.65 0.64 0.35 0.33 0.36 0.35 0.38 0.42 0.32 0.29 0.34 0.38 0.42 0.40 0.44 0.33 0.31 0.42 0.44 0.41 0.41 0.41 0.37 0.39 0.39 0.51 0.55
1.24 1.23 1.21 1.20 1.19 1.18 1.16 1.13 1.09 1.04 0.98 0.93 0.90 0.88 0.85 0.80 0.62 0.68 0.60 0.73 0.70 0.66 0.26 0.25 0.29 0.32 0.40 0.45 0.31 0.40 0.42 0.31 0.35 0.35 0.41 0.37 0.39 0.35 0.36 0.32 0.46 0.34 0.46 0.49 0.46 0.45 0.32
1.17 1.18 1.17 1.15 1.12 1.09 1.08 1.07 1.05 1.04 1.00 0.94 0.91 0.89 0.86 0.82 0.71 0.65 0.70 0.81 0.76 0.56 0.19 0.28 0.29 0.41 0.41 0.33 0.29 0.38 0.52 0.43 0.26 0.27 0.39 0.22 0.32 0.30 0.27 0.23 0.45 0.32 0.51 0.49 0.46 0.40 0.40
1.11 1.12 1.08 1.09 1.06 1.03 1.02 1.01 1.00 0.99 0.99 0.96 0.97 0.96 0.95 0.83 0.79 0.80 0.83 0.84 0.66 0.33 0.20 0.29 0.37 0.36 0.37 0.38 0.33 0.36 0.47 0.56 0.48 0.36 0.38 0.28 0.40 0.40 0.32 0.37 0.42 0.44 0.38 0.42 0.44 0.39 0.30
1.07 1.08 1.06 1.03 1.00 0.98 0.97 0.96 0.95 0.95 0.94 0.95 0.95 0.95 0.88 0.83 0.65 0.82 0.79 0.65 0.35 0.25 0.33 0.29 0.32 0.38 0.36 0.34 0.35 0.37 0.34 0.39 0.37 0.33 0.30 0.31 0.29 0.36 0.44 0.37 0.37 0.41 0.33 0.25 0.25 0.24 0.22
1.01 1.00 0.99 0.98 0.97 0.96 0.95 0.93 0.91 0.91 0.91 0.91 0.90 0.90 0.87 0.81 0.84 0.82 0.69 0.49 0.28 0.30 0.30 0.36 0.34 0.33 0.29 0.31 0.32 0.34 0.35 0.34 0.38 0.38 0.36 0.35 0.23 0.27 0.36 0.35 0.28 0.29 0.29 0.27 0.16 0.19 0.21
0.96 0.96 0.95 0.95 0.94 0.93 0.90 0.88 0.87 0.87 0.87 0.87 0.88 0.84 0.78 0.78 0.81 0.77 0.55 0.33 0.28 0.30 0.34 0.34 0.33 0.28 0.26 0.30 0.33 0.31 0.31 0.35 0.39 0.45 0.37 0.38 0.38 0.39 0.45 0.51 0.47 0.27 0.30 0.30 0.32 0.30 0.29
0.93 0.92 0.90 0.89 0.88 0.86 0.83 0.80 0.80 0.80 0.80 0.80 0.68 0.65 0.63 0.74 0.76 0.63 0.43 0.30 0.31 0.36 0.37 0.37 0.27 0.33 0.25 0.28 0.29 0.34 0.33 0.46 0.43 0.52 0.59 0.49 0.35 0.44 0.48 0.57 0.52 0.50 0.51 0.35 0.35 0.21 0.20
0.83 0.84 0.84 0.83 0.82 0.80 0.78 0.76 0.74 0.75 0.76 0.76 0.62 0.49 0.59 0.70 0.66 0.49 0.32 0.31 0.31 0.34 0.36 0.32 0.31 0.30 0.32 0.30 0.32 0.33 0.37 0.47 0.51 0.50 0.54 0.51 0.43 0.38 0.47 0.44 0.45 0.46 0.43 0.49 0.48 0.42 0.26
0.79 0.79 0.79 0.79 0.79 0.79 0.78 0.75 0.73 0.74 0.76 0.70 0.55 0.37 0.56 0.66 0.38 0.40 0.30 0.35 0.37 0.33 0.37 0.36 0.37 0.32 0.29 0.29 0.28 0.31 0.31 0.41 0.52 0.50 0.40 0.48 0.40 0.33 0.36 0.43 0.53 0.55 0.49 0.48 0.38 0.35 0.40
0.71 0.73 0.75 0.76 0.75 0.75 0.74 0.73 0.72 0.72 0.74 0.63 0.46 0.43 0.61 0.59 0.28 0.28 0.33 0.33 0.36 0.32 0.33 0.35 0.35 0.38 0.38 0.33 0.30 0.35 0.37 0.45 0.44 0.43 0.37 0.40 0.34 0.25 0.26 0.39 0.46 0.42 0.46 0.45 0.43 0.42 0.35
0.58 0.67 0.67 0.70 0.71 0.70 0.70 0.70 0.68 0.70 0.73 0.63 0.46 0.33 0.42 0.47 0.43 0.31 0.28 0.29 0.28 0.36 0.34 0.38 0.38 0.41 0.36 0.33 0.37 0.31 0.31 0.34 0.37 0.37 0.42 0.42 0.32 0.29 0.23 0.28 0.32 0.32 0.37 0.40 0.38 0.31 0.31
0.58 0.53 0.55 0.62 0.60 0.62 0.62 0.66 0.67 0.68 0.70 0.60 0.46 0.34 0.36 0.27 0.28 0.30 0.32 0.27 0.23 0.24 0.32 0.33 0.30 0.31 0.30 0.27 0.29 0.29 0.32 0.31 0.31 0.32 0.36 0.33 0.23 0.25 0.28 0.30 0.34 0.32 0.30 0.32 0.32 0.34 0.28
0.54 0.57 0.54 0.47 0.54 0.59 0.58 0.59 0.62 0.63 0.69 0.54 0.38 0.34 0.38 0.31 0.30 0.28 0.30 0.25 0.24 0.24 0.26 0.22 0.27 0.31 0.36 0.29 0.27 0.24 0.27 0.25 0.21 0.25 0.22 0.25 0.16 0.20 0.17 0.28 0.30 0.28 0.25 0.25 0.27 0.28 0.28
0.48 0.54 0.54 0.54 0.48 0.47 0.53 0.56 0.51 0.58 0.62 0.47 0.47 0.48 0.36 0.29 0.29 0.25 0.25 0.23 0.23 0.28 0.29 0.32 0.32 0.32 0.31 0.31 0.33 0.30 0.28 0.25 0.22 0.18 0.16 0.16 0.15 0.15 0.11 0.19 0.24 0.19 0.17 0.18 0.20 0.24 0.26
0.51 0.48 0.52 0.52 0.55 0.51 0.46 0.50 0.53 0.50 0.52 0.46 0.45 0.42 0.33 0.24 0.26 0.25 0.27 0.27 0.27 0.31 0.30 0.36 0.39 0.33 0.32 0.37 0.33 0.29 0.25 0.22 0.20 0.17 0.17 0.11 0.12 0.15 0.11 0.14 0.11 0.18 0.21 0.22 0.21 0.21 0.24
0.54 0.53 0.51 0.52 0.53 0.55 0.53 0.48 0.51 0.53 0.47 0.41 0.42 0.38 0.33 0.23 0.27 0.27 0.28 0.27 0.30 0.32 0.31 0.31 0.33 0.33 0.34 0.28 0.19 0.14 0.13 0.12 0.13 0.13 0.13 0.16 0.17 0.16 0.15 0.13 0.16 0.16 0.20 0.20 0.19 0.22 0.37
0.55 0.56 0.56 0.54 0.54 0.55 0.56 0.52 0.51 0.55 0.54 0.46 0.43 0.43 0.36 0.26 0.24 0.32 0.29 0.30 0.26 0.28 0.29 0.29 0.33 0.33 0.29 0.21 0.16 0.11 0.09 0.10 0.09 0.10 0.12 0.19 0.22 0.21 0.19 0.15 0.12 0.16 0.25 0.31 0.32 0.18 0.37
0.55 0.55 0.56 0.57 0.55 0.55 0.56 0.58 0.52 0.54 0.55 0.50 0.43 0.46 0.38 0.27 0.31 0.36 0.29 0.30 0.33 0.29 0.24 0.25 0.26 0.25 0.26 0.18 0.13 0.11 0.10 0.15 0.10 0.09 0.10 0.12 0.15 0.18 0.19 0.18 0.21 0.32 0.35 0.36 0.21 0.21 0.36
0.56 0.57 0.56 0.58 0.59 0.55 0.55 0.57 0.57 0.52 0.54 0.52 0.44 0.47 0.38 0.29 0.34 0.41 0.42 0.33 0.32 0.29 0.22 0.25 0.22 0.23 0.20 0.15 0.14 0.13 0.14 0.15 0.16 0.16 0.16 0.16 0.15 0.16 0.20 0.18 0.16 0.40 0.36 0.28 0.35 0.38 0.43
0.58 0.58 0.59 0.57 0.60 0.58 0.56 0.56 0.58 0.55 0.50 0.54 0.43 0.47 0.46 0.37 0.37 0.48 0.46 0.45 0.40 0.35 0.28 0.27 0.22 0.22 0.22 0.18 0.19 0.20 0.17 0.19 0.16 0.10 0.17 0.15 0.23 0.20 0.23 0.23 0.37 0.34 0.34 0.43 0.44 0.39 0.46